Location: Bishop�s Knoyle
(51.0728°N, 2.1714°W)
Time: 13:45:33
(UTC+00:00)

Envisat - Pass Details

Date: 18 September 2021
Orbit: 764 x 766 km, 98.2° (Epoch: 23 October)

Event Time Altitude Azimuth Distance (km) Brightness Sun altitude
Rises 04:55:39 0° 18° (NNE) 3,246 6.7 -9.1°
Reaches altitude 10° 04:58:05 10° 25° (NNE) 2,315 6.1 -8.7°
Maximum altitude 05:02:57 44° 98° (E) 1,055 4.3 -7.9°
Drops below altitude 10° 05:07:47 10° 170° (S) 2,297 5.5 -7.2°
Sets 05:10:11 0° 177° (S) 3,218 6.1 -6.8°
